Regional Weather Roundup
Issued by NWS

Home | Current Version | Previous Version | Graphics & Text | Print | Product List | Glossary On
Versions: 1 2 3 4 5 6 7 8 9 10 11 12 13 14 15 16 17 18 19 20 21 22 23 24 25 26 27 28 29 30 31 32 33 34 35 36 37 38 39 40 41 42 43 44 45 46 47 48 49 50
331
ASUS45 KABQ 261601
RWRNM
NEW MEXICO REGIONAL WEATHER ROUNDUP
NATIONAL WEATHER SERVICE ALBUQUERQUE NM
1000 AM MDT TUE JUL 26 2016

NOTE: "FAIR" MEANS FEW OR NO CLOUDS BELOW 12,000 FEET AGL WITH NO
       SIGNIFICANT WEATHER OR OBSTRUCTIONS TO VISION.

      THIS PRODUCT IS RELEASED AS TWO VERSIONS.  ONE VERSION NEAR
      THE TOP OF THE HOUR CONTAINING PRELIMINARY DATA FROM ALBUQUERQUE
      AND OTHER STATIONS.  A FINAL VERSION WITH ADDITIONAL DATA IS
      ISSUED ABOUT 10 MINUTES AFTER THE HOUR.

NMZ501-503-504-510>518-261700-
NORTHWEST PLATEAU/NORTHCENTRAL MOUNTAINS

CITY           SKY/WX    TMP DP  RH WIND       PRES   REMARKS
FARMINGTON     FAIR      76  53  44 SE9       30.25F
LOS ALAMOS     FAIR      71  53  52 NE6       30.39F
SANTA FE       FAIR      75  55  49 CALM      30.32F
TAOS           FAIR      70  45  40 SW6       30.40F
ANGEL FIRE     FAIR      61  53  75 CALM      30.46F

$$
NMZ402-403-502-505>509-261700-
WESTCENTRAL MOUNTAINS/SOUTHWEST MOUNTAINS

CITY           SKY/WX    TMP DP  RH WIND       PRES   REMARKS
GALLUP         PTSUNNY   75  51  43 SW7       30.33F
GRANTS         CLOUDY    72  55  55 SE8       30.36F
SILVER CITY    FAIR      82  54  37 E16       30.24F

$$
NMZ407-409-411-412-261700-
SOUTHERN DESERTS

CITY           SKY/WX    TMP DP  RH WIND       PRES   REMARKS
LORDSBURG      FAIR      84  57  39 SE17G23   30.15F
DEMING         FAIR      86  58  38 E15       30.15F
LAS CRUCES     FAIR      86  52  30 E3        30.18F
HOLLOMAN AFB   FAIR      77  62  60 NE6       30.15F
ALAMOGORDO     FAIR      81  55  41 NE5       30.17F
T OR C         FAIR      80  57  45 CALM      30.20F

$$
NMZ519>523-261700-
CENTRAL VALLEYS/CENTRAL HIGHLANDS

CITY           SKY/WX    TMP DP  RH WIND       PRES   REMARKS
ALBUQUERQUE    FAIR      76  58  53 W7        30.28S
DOUBLE EAGLE   PTSUNNY   75  59  57 SW6       30.31F
MORIARTY ARPT  FAIR      74  55  51 N8        30.32F
CLINES CORNERS FAIR      70  56  61 NW13      30.37F
BELEN          FAIR      77  56  48 CALM      30.26F
SOCORRO        FAIR      77  57  49 NE5       30.23F

$$
NMZ524>526-539-540-261700-
SOUTHCENTRAL MOUNTAINS

CITY           SKY/WX    TMP DP  RH WIND       PRES   REMARKS
RUIDOSO          N/A     72  50  46 S5        30.37F

$$
NMZ527>531-261700-
NORTHEAST HIGHLANDS/NORTHEAST PLAINS

CITY           SKY/WX    TMP DP  RH WIND       PRES   REMARKS
LAS VEGAS      FAIR      74  53  48 SW8       30.33F
RATON          FAIR      66  53  63 VRB3      30.29F
CLAYTON        FAIR      82  54  37 SW9       30.21F

$$
NMZ532>537-261700-
EASTCENTRAL PLAINS

CITY           SKY/WX    TMP DP  RH WIND       PRES   REMARKS
TUCUMCARI      FAIR      80  62  54 VRB6      30.15F
CANNON AFB     NOT AVBL
CLOVIS AIRPORT FAIR      81  57  44 NW9       30.17F

$$
NMZ028-029-538-261700-
SOUTHEAST PLAINS

CITY           SKY/WX    TMP DP  RH WIND       PRES   REMARKS
ROSWELL        FAIR      78  64  61 NE7       30.15F
ARTESIA        FAIR      79  64  61 NE12      30.15S
CARLSBAD       FAIR      84  59  42 N7        30.11S
HOBBS          SUNNY     86  57  37 NE14G20   30.14S


$$




USA.gov is the U.S. government's official web portal to all federal, state and local government web resources and services.